Simultaneous Nadir Overpasses (SNOs) Predictions

Prediction of SNOs between LANDSAT-8 and METOP-B Satellite Orbit:

Table of predicted SNOs for the next 14.0 days since TLE Epoch: 1/27/2015
Index Date (LANDSAT-8) Time (LANDSAT-8) Lat,Lon (LANDSAT-8) SZA (LANDSAT-8 ) Date (METOP-B) Time (METOP-B) Lat,Lon (METOP-B) SZA (METOP-B ) Distance(km) Time Diff (sec)
1 01/29/2015 08:58:00 -81.01, -96.60 79.54 01/29/2015 08:56:53 -81.01, -96.78 79.58 3.26 67
2 01/29/2015 09:47:24 81.06, 71.81 100.57 01/29/2015 09:47:31 81.05, 71.65 100.55 3.05 7
3 02/01/2015 04:32:16 -81.03, -29.87 80.27 02/01/2015 04:31:14 -81.04, -29.70 80.28 3.13 62
4 02/01/2015 05:21:41 81.06, 138.17 99.78 02/01/2015 05:21:54 81.05, 138.00 99.76 3.05 13
5 02/04/2015 00:06:33 -81.02, 36.34 81.12 02/04/2015 00:05:37 -81.02, 36.24 81.15 1.85 56
6
